Weather History for Fairhope, AL

Change the Weather History Date:

Saturday, March 9, 2013

  Actual Average (KBFM) Record (KBFM)
Temperature  
Mean Temperature 56 °F -  
Max Temperature 71 °F 65 °F 81 °F (1999)
Min Temperature 41 °F 47 °F 36 °F (2008)
Degree Days  
Heating Degree Days 9    
Growing Degree Days 6 (Base 50)    
Moisture  
Dew Point 50 °F    
Average Humidity 77    
Maximum Humidity 100    
Minimum Humidity 35    
Precipitation  
Precipitation 0.00 in - - ()
Sea Level Pressure  
Sea Level Pressure 30.16 in    
Wind  
Wind Speed 4 mph (ESE)    
Max Wind Speed 14 mph    
Max Gust Speed 20 mph    
Visibility 6 miles    
Events      
Averages and records for this station are not official NWS values.
T = Trace of Precipitation, MM = Missing Value Source: NWS Daily Summary

Daily Weather History Graph

Daily Weather History Graph

Search for Another Location

Airport:

Trip Planner

Search our weather history database for the weather conditions in past years. The results will help you decide how hot, cold, wet, or windy it might be!

Date:

Astronomy

Mar. 09, 2013 Rise Set
Actual Time 6:08 AM CST 5:56 PM CST
Civil Twilight 5:44 AM CST 6:20 PM CST
Nautical Twilight 5:16 AM CST 6:47 PM CST
Astronomical Twilight 4:48 AM CST 7:15 PM CST
Moon 4:24 AM CST (3/9) 4:03 PM CST (3/9)
Length of Visible Light 12h 35m
Length of Day
11h 47m
Waning Crescent, 5% of the Moon is Illuminated
Mar 9
Waning Crescent
Mar 11
New
Mar 19
First Quarter
Mar 27
Full
Apr 2
Last Quarter

Hourly Weather History & Observations

Time (CST) Temp. Dew Point Humidity Pressure Visibility Wind Dir Wind Speed Gust Speed Precip Events Conditions
12:15 AM 44.6 °F 44.6 °F 100% 30.21 in 2.0 mi Calm Calm - N/A   Clear
12:35 AM 44.6 °F 44.6 °F 100% 30.22 in 3.0 mi Calm Calm - N/A   Clear
1:15 AM 46.4 °F 46.4 °F 100% 30.20 in 7.0 mi Calm Calm - N/A   Clear
1:35 AM 46.4 °F 46.4 °F 100% 30.19 in 5.0 mi Calm Calm - N/A   Clear
1:55 AM 46.4 °F 46.4 °F 100% 30.19 in 5.0 mi Calm Calm - N/A   Clear
2:15 AM 46.4 °F 44.6 °F 93% 30.18 in 4.0 mi Calm Calm - N/A   Clear
2:35 AM 44.6 °F 42.8 °F 93% 30.18 in 2.5 mi Calm Calm - N/A   Clear
2:55 AM 42.8 °F 42.8 °F 100% 30.17 in 0.8 mi Calm Calm - N/A   Mist
3:15 AM 42.8 °F 42.8 °F 100% 30.17 in 4.0 mi Calm Calm - N/A   Clear
3:35 AM 41.0 °F 41.0 °F 100% 30.16 in 4.0 mi Calm Calm - N/A   Clear
3:55 AM 42.8 °F 42.8 °F 100% 30.15 in 1.0 mi Calm Calm - N/A   Unknown
4:15 AM 42.8 °F 42.8 °F 100% 30.14 in 5.0 mi Calm Calm - N/A   Clear
4:35 AM 44.6 °F 44.6 °F 100% 30.14 in 5.0 mi Calm Calm - N/A   Clear
4:55 AM 46.4 °F 44.6 °F 93% 30.15 in 4.0 mi Calm Calm - N/A   Clear
5:15 AM 46.4 °F 44.6 °F 93% 30.15 in 5.0 mi Calm Calm - N/A   Clear
5:35 AM 46.4 °F 44.6 °F 93% 30.16 in 4.0 mi Calm Calm - N/A   Clear
6:15 AM 42.8 °F 42.8 °F 100% 30.16 in 5.0 mi Calm Calm - N/A   Clear
6:35 AM 44.6 °F 44.6 °F 100% 30.17 in 4.0 mi Calm Calm - N/A   Clear
6:55 AM 44.6 °F 44.6 °F 100% 30.18 in 4.0 mi Calm Calm - N/A   Clear
7:15 AM 50.0 °F 46.4 °F 87% 30.19 in 7.0 mi Calm Calm - N/A   Clear
7:35 AM 51.8 °F 46.4 °F 82% 30.20 in 7.0 mi ENE 3.5 mph - N/A   Clear
7:55 AM 53.6 °F 46.4 °F 77% 30.20 in 5.0 mi ENE 4.6 mph - N/A   Haze
8:15 AM 57.2 °F 44.6 °F 63% 30.21 in 7.0 mi East 5.8 mph - N/A   Clear
8:35 AM 59.0 °F 46.4 °F 63% 30.21 in 7.0 mi ESE 4.6 mph - N/A   Clear
9:15 AM 62.6 °F 50.0 °F 63% 30.21 in 5.0 mi East 8.1 mph - N/A   Haze
9:35 AM 64.4 °F 50.0 °F 59% 30.20 in 7.0 mi East 10.4 mph 17.3 mph N/A   Clear
9:55 AM 68.0 °F 50.0 °F 52% 30.20 in 5.0 mi ESE 11.5 mph 18.4 mph N/A   Haze
10:15 AM 69.8 °F 50.0 °F 49% 30.19 in 7.0 mi ESE 10.4 mph 19.6 mph N/A   Clear
10:35 AM 69.8 °F 50.0 °F 49% 30.21 in 7.0 mi ESE 8.1 mph - N/A   Clear
10:55 AM 71.6 °F 46.4 °F 41% 30.21 in 7.0 mi East 8.1 mph - N/A   Clear
11:15 AM 69.8 °F 44.6 °F 40% 30.21 in 7.0 mi ESE 10.4 mph - N/A   Clear
11:35 AM 71.6 °F 42.8 °F 35% 30.20 in 7.0 mi SE 11.5 mph - N/A   Clear
11:55 AM 71.6 °F 44.6 °F 38% 30.20 in 7.0 mi ESE 8.1 mph - N/A   Clear
12:15 PM 71.6 °F 42.8 °F 35% 30.20 in 7.0 mi ESE 11.5 mph - N/A   Clear
12:35 PM 71.6 °F 44.6 °F 38% 30.19 in 7.0 mi East 11.5 mph - N/A   Clear
12:55 PM 69.8 °F 46.4 °F 43% 30.19 in 7.0 mi ESE 13.8 mph - N/A   Clear
1:15 PM 69.8 °F 50.0 °F 49% 30.18 in 7.0 mi ESE 9.2 mph 16.1 mph N/A   Clear
1:35 PM 71.6 °F 51.8 °F 50% 30.18 in 7.0 mi SE 10.4 mph 16.1 mph N/A   Clear
1:55 PM 69.8 °F 53.6 °F 56% 30.18 in 7.0 mi SE 10.4 mph - N/A   Clear
2:15 PM 69.8 °F 53.6 °F 56% 30.18 in 7.0 mi SE 9.2 mph 16.1 mph N/A   Clear
2:35 PM 68.0 °F 53.6 °F 60% 30.17 in 7.0 mi SE 12.7 mph - N/A   Clear
2:55 PM 68.0 °F 55.4 °F 64% 30.16 in 7.0 mi SE 9.2 mph - N/A   Clear
3:15 PM 68.0 °F 55.4 °F 64% 30.16 in 7.0 mi SE 10.4 mph - N/A   Clear
3:35 PM 68.0 °F 57.2 °F 68% 30.16 in 5.0 mi ESE 11.5 mph - N/A   Haze
3:55 PM 68.0 °F 57.2 °F 68% 30.15 in 5.0 mi ESE 11.5 mph 16.1 mph N/A   Haze
4:15 PM 66.2 °F 57.2 °F 73% 30.15 in 7.0 mi ESE 11.5 mph 18.4 mph N/A   Clear
4:35 PM 66.2 °F 57.2 °F 73% 30.15 in 5.0 mi ESE 11.5 mph - N/A   Haze
5:15 PM 64.4 °F 57.2 °F 77% 30.14 in 7.0 mi ESE 10.4 mph - N/A   Clear
5:35 PM 64.4 °F 55.4 °F 73% 30.14 in 7.0 mi ESE 10.4 mph - N/A   Clear
5:55 PM 62.6 °F 55.4 °F 77% 30.14 in 7.0 mi ESE 9.2 mph - N/A   Clear
6:15 PM 62.6 °F 55.4 °F 77% 30.13 in 7.0 mi ESE 10.4 mph - N/A   Clear
6:35 PM 62.6 °F 55.4 °F 77% 30.12 in 7.0 mi ESE 11.5 mph - N/A   Clear
6:55 PM 62.6 °F 55.4 °F 77% 30.13 in 7.0 mi ESE 10.4 mph 16.1 mph N/A   Clear
7:15 PM 62.6 °F 55.4 °F 77% 30.12 in 7.0 mi ESE 11.5 mph 17.3 mph N/A   Clear
7:35 PM 60.8 °F 55.4 °F 82% 30.11 in 7.0 mi ESE 12.7 mph 16.1 mph N/A   Clear
7:55 PM 60.8 °F 55.4 °F 82% 30.11 in 7.0 mi ESE 9.2 mph - N/A   Clear
8:15 PM 60.8 °F 55.4 °F 82% 30.11 in 7.0 mi ESE 8.1 mph - N/A   Clear
8:35 PM 60.8 °F 57.2 °F 88% 30.10 in 7.0 mi ESE 8.1 mph - N/A   Clear
8:55 PM 60.8 °F 57.2 °F 88% 30.11 in 7.0 mi ESE 9.2 mph - N/A   Clear
9:15 PM 60.8 °F 57.2 °F 88% 30.11 in 7.0 mi SE 11.5 mph - N/A   Clear
9:55 PM 60.8 °F 59.0 °F 94% 30.10 in 7.0 mi ESE 10.4 mph - N/A   Clear
10:15 PM 60.8 °F 59.0 °F 94% 30.09 in 7.0 mi ESE 10.4 mph - N/A   Clear
10:35 PM 60.8 °F 59.0 °F 94% 30.08 in 7.0 mi ESE 9.2 mph 16.1 mph N/A   Clear
10:55 PM 60.8 °F 59.0 °F 94% 30.07 in 7.0 mi ESE 9.2 mph - N/A   Clear
11:15 PM 60.8 °F 59.0 °F 94% 30.07 in 5.0 mi ESE 10.4 mph 16.1 mph N/A   Clear
11:35 PM 60.8 °F 59.0 °F 94% 30.08 in 7.0 mi SE 8.1 mph 16.1 mph N/A   Clear